Location: Bailleul
(50.3375°N, 2.8513°E)
Time: 09:22:56
(UTC+00:00)

NOSS 3-2 (C) - Pass Details

Date: 16 June 2021
Orbit: 778 x 1434 km, 63.4° (Epoch: 14 July)

Event Time Altitude Azimuth Distance (km) Brightness Sun altitude
Rises 21:10:34 0° 228° (SW) 3,355 6.3 -8.3°
Reaches altitude 10° 21:12:52 10° 230° (SW) 2,479 5.6 -8.6°
Maximum altitude 21:18:36 76° 316° (NW) 969 3.7 -9.1°
Drops below altitude 10° 21:25:20 10° 43° (NE) 2,895 6.2 -9.7°
Sets 21:28:14 0° 45° (NE) 3,959 6.8 -9.9°
